Location: Bosdarros
(43.2167°N, 0.3667°W)
Time: 15:31:34
(UTC+00:00)

SL-4 R/B - Pass Details

Date: 22 April 2021
Orbit: 427 x 663 km, 51.6° (Epoch: 12 May)

Event Time Altitude Azimuth Distance (km) Brightness Sun altitude
Rises 23:03:03 0° 286° (WNW) 2,875 6.1 -32.8°
Reaches altitude 10° 23:05:34 10° 298° (WNW) 2,004 5.3 -32.9°
Enters shadow 23:09:12 29° 349° (N) 1,198 4.2 -33.1°
